Weather Roundup
Issued by NWS

Home | Current Version | Previous Version | Graphics & Text | Print | Product List | Glossary Off
Versions: 1 2 3 4 5 6 7 8 9 10 11 12 13 14 15 16 17 18 19 20 21 22 23 24 25 26 27 28 29 30 31 32 33 34 35 36 37 38 39 40 41 42 43 44 45 46 47 48 49 50

000
NZUS93 KARX 281959
HRRWXR

CURRENT HOURLY OBSERVATIONS ACROSS
MUCH OF THE UPPER MISSISSIPPI VALLEY
NATIONAL WEATHER SERVICE LA CROSSE WI
200 PM CST SUN DEC 28 2014


...SOUTHEAST MINNESOTA...


CITY           SKY/WX    TMP DP  RH WIND       PRES   REMARKS
ROCHESTER      SUNNY     18  12  77 NW5       30.13R WCI  11
ROCHESTER/MAYO FAIR      23  14  66 W5        30.14R WCI  17
WINONA         CLOUDY    25  18  74 NW6       30.17S WCI  18
AUSTIN         SUNNY     19  14  79 N3        30.13R
ALBERT LEA     SUNNY     19  14  79 N3        30.14R
DODGE CENTER   MOSUNNY   19  16  86 CALM      30.13R
PRESTON        SUNNY     19  13  77 W3        30.14R
OWATONNA       SUNNY     18  12  79 NW5       30.15R WCI  11
FARIBAULT      MOSUNNY   21  16  79 N5        30.17R WCI  15
$$

...ELSEWHERE IN MINNESOTA...


CITY           SKY/WX    TMP DP  RH WIND       PRES   REMARKS
MINNEAPOLIS    PTSUNNY   22  14  71 NE9       30.18R WCI  12
INTNL FALLS    SUNNY      2  -8  63 W8        30.22R WCI -12
DULUTH         SUNNY     10  -5  50 N9        30.14S WCI  -3
RED WING       CLOUDY    21  12  68 CALM      30.17R
REDWOOD FALLS  CLOUDY    25  18  74 N7        30.17S WCI  17
MANKATO        MOSUNNY   19  14  79 N6        30.15F WCI  11
WORTHINGTON    MOSUNNY   21 -24  12 N9        30.12R WCI  11
FAIRMONT       SUNNY     21  12  68 N5        30.14S WCI  15
$$

...SOUTHWEST WISCONSIN...


CITY           SKY/WX    TMP DP  RH WIND       PRES   REMARKS
LA CROSSE      SUNNY     28  17  63 CALM      30.16R
PRAIRIE DU CHI SUNNY     31  18  59 S3        30.16S
BOSCOBEL       MOSUNNY   32  19  58 SW6       30.16R WCI  26
LONE ROCK      NOT AVBL
PLATTEVILLE    SUNNY     30  17  58 W5        30.15S WCI  25
FORT MC COY    SUNNY     28  18  68 W3        30.14S
VIROQUA        FAIR      28  20  74 SW5       30.10F WCI  22
WIS DELLS      NOT AVBL
$$

...ELSEWHERE IN WISCONSIN...


CITY           SKY/WX    TMP DP  RH WIND       PRES   REMARKS
MILWAUKEE      MOSUNNY   34  17  50 NW8       30.13R WCI  27
MADISON        MOSUNNY   31  18  58 VRB3      30.13R
GREEN BAY      PTSUNNY   27  18  69 W6        30.12R WCI  20
EAU CLAIRE     NOT AVBL
BLACK RVR FLS  MOCLDY    25  16  68 W3        30.13S
MEDFORD        LGT SNOW  15  12  87 W5        30.09R WCI   8
WAUSAU         CLOUDY    18  13  80 NW5       30.10R HAZE    WCI  11
WIS RAPIDS     CLOUDY    25  16  68 NW5       30.13R WCI  19
MARSHFIELD     CLOUDY    18  13  80 NW6       30.11R WCI  10
RICE LAKE      PTSUNNY   22  13  67 N6        30.15S WCI  14
$$

...NORTHEAST IOWA...


CITY           SKY/WX    TMP DP  RH WIND       PRES   REMARKS
DECORAH        SUNNY     27  19  74 CALM      30.12S
MASON CITY     SUNNY     22  15  75 NE5       30.14S WCI  16
CHARLES CITY   SUNNY     25  19  80 CALM      30.14S
OELWEIN        SUNNY     28  21  74 VRB5      30.14S WCI  23
$$

...ELSEWHERE IN IOWA...


CITY           SKY/WX    TMP DP  RH WIND       PRES   REMARKS
DES MOINES     MOSUNNY   33  23  66 S3        30.14F
IOWA CITY      SUNNY     32  18  56 S6        30.18F WCI  26
FORT DODGE     SUNNY     21  14  73 E5        30.13S WCI  15
$$

...NORTHERN ILLINOIS...


CITY           SKY/WX    TMP DP  RH WIND       PRES   REMARKS
CHICAGO-OHARE  MOSUNNY   34  13  41 W10       30.14R WCI  26
CHICAGO-MIDWAY MOSUNNY   34  17  50 SW6       30.15S WCI  29
MOLINE         SUNNY     35  17  47 MISG      30.17F
ROCKFORD       MOSUNNY   35  18  49 W8        30.17S WCI  29
PEORIA         SUNNY     35  18  49 SW3       30.19F
$$

NOTE: "FAIR" INDICATES FEW OR NO CLOUDS BELOW 12,000 FEET WITH NO
SIGNIFICANT WEATHER AND/OR OBSTRUCTIONS TO VISIBILITY. WIND
SPEEDS ARE IN MILES-PER-HOUR.



USA.gov is the U.S. government's official web portal to all federal, state and local government web resources and services.